Printer-friendly version

IAU Minor Planet Center

Minor Planet Center

MPEC 2009-M47 : 2009 MM8

The following Minor Planet Electronic Circular may be linked-to from your own Web pages, but must not otherwise be redistributed electronically.


Read MPEC 2009-M46 Read MPEC 2009-M48


M.P.E.C. 2009-M47                                Issued 2009 June 29, 13:37 UT

     The Minor Planet Electronic Circulars contain information on unusual
         minor planets and routine data on comets.  They are published
   on behalf of Commission 20 of the International Astronomical Union by the
          Minor Planet Center, Smithsonian Astrophysical Observatory,
                          Cambridge, MA 02138, U.S.A.

             Prepared using the Tamkin Foundation Computer Network

                              MPC@CFA.HARVARD.EDU
          URL http://www.cfa.harvard.edu/iau/mpc.html  ISSN 1523-6714

                                   2009 MM8

Observations:
     K09M08M* C2009 06 24.21871 15 36 27.72 -15 37 40.0          20.2 V EM047G96
     K09M08M  C2009 06 24.22581 15 36 28.29 -15 38 00.6          20.2 V EM047G96
     K09M08M  C2009 06 24.23277 15 36 28.83 -15 38 21.0          20.1 V EM047G96
     K09M08M  C2009 06 24.24006 15 36 29.48 -15 38 42.3          20.8 V EM047G96
     K09M08M  C2009 06 24.27221 15 36 32.29 -15 40 14.1          21.3 V EM047G96
     K09M08M  C2009 06 24.27330 15 36 32.43 -15 40 16.8          20.0 V EM047G96
     K09M08M  C2009 06 24.27434 15 36 32.47 -15 40 19.7          20.3 V EM047G96
     K09M08M  C2009 06 24.27538 15 36 32.54 -15 40 23.1          20.2 V EM047G96
     K09M08M  C2009 06 27.23674 15 44 25.50 -18 28 18.2          20.5 V EM047G96
     K09M08M  C2009 06 27.23829 15 44 25.72 -18 28 25.1          20.7 V EM047G96
     K09M08M  C2009 06 27.23983 15 44 25.97 -18 28 30.9          19.8 V EM047G96
     K09M08M  C2009 06 27.24137 15 44 26.14 -18 28 37.1          20.4 V EM047G96

Observer details:
G96 Mt. Lemmon Survey.  Observers R. A. Kowalski, R. E. Hill.  Measurers
    E. C. Beshore, A. Boattini, G. J. Garradd, A. R. Gibbs, A. D. Grauer,
    R. E. Hill, R. A. Kowalski, S. M. Larson, R. H. McNaught.  1.5-m reflector
    + CCD.

Orbital elements:
2009 MM8                                                 Earth MOID = 0.0292 AU
Epoch 2009 June 18.0 TT = JDT 2455000.5                 MPC
M 347.71152              (2000.0)            P               Q
n   0.39108268     Peri.  202.82325     +0.46581221     +0.88323086
a   1.8519261      Node    94.97642     -0.80326283     +0.44768293
e   0.4388368      Incl.    3.11052     -0.37119781     +0.13958235
P   2.52           H   24.5           G   0.15           U   9
Residuals in seconds of arc
090624 G96  0.7+  0.2+    090624 G96  0.3+  0.3-    090627 G96  0.3+  0.6+
090624 G96  0.3+  0.1+    090624 G96  0.9+  0.2+    090627 G96  0.2+  0.3-
090624 G96  0.4-  0.2-    090624 G96  0.1+  0.2+    090627 G96  0.6+  0.2-
090624 G96  0.0   0.5-    090624 G96  0.2-  0.2-    090627 G96  0.2-  0.4-

Ephemeris:
2009 MM8                 a,e,i = 1.85, 0.44, 3                   q = 1.0392
Date    TT    R. A. (2000) Decl.     Delta      r     Elong.  Phase     V
2009 06 28    15 47.07   -19 18.5    0.0617   1.066   142.5    35.5    20.0
2009 07 03    16 14.03   -27 04.9    0.0467   1.055   145.0    33.6    19.4
2009 07 08    17 17.59   -39 56.7    0.0346   1.047   150.7    28.4    18.6
2009 07 13    20 00.84   -52 40.5    0.0293   1.042   148.6    30.6    18.2
2009 07 18    23 11.29   -46 13.2    0.0338   1.039   132.1    46.5    19.0
2009 07 23    00 31.68   -34 28.1    0.0450   1.040   121.0    56.9    19.9
2009 07 28    01 04.70   -26 43.3    0.0591   1.043   116.8    60.3    20.6
2009 08 02    01 20.79   -21 52.9    0.0743   1.050   116.4    60.0    21.1
2009 08 07    01 29.18   -18 42.4    0.0898   1.059   118.0    57.7    21.5
2009 08 12    01 33.22   -16 31.6    0.105    1.071   121.0    54.2    21.7
2009 08 17    01 34.31   -14 58.7    0.121    1.086   124.7    50.0    22.0

Sonia Keys                   (C) Copyright 2009 MPC           M.P.E.C. 2009-M47

Read MPEC 2009-M46 Read MPEC 2009-M48

Valid HTML 4.01!